Location: D�mokoulima
(10.6000°N, 12.7000°W)
Time: 14:51:21
(UTC+00:00)

Daily predictions for brighter satellites

Satellite Brightness Start Highest point End
(mag) Time Altitude Azimuth Time Altitude Azimuth Time Altitude Azimuth
H-2A ROCKET BODY 4.0 18:34:56 10° SW 18:40:43 69° SE 19:11:52 11° ENE
Ariane H10 3.9 18:40:21 10° SW 18:42:39 31° SSE 18:46:54 10° E
Cosmos 2297 3.8 18:41:01 10° N 18:46:39 61° ENE 18:52:17 10° SSE
CZ-2C R/B 4.5 18:49:25 10° ESE 18:52:30 16° ENE 18:55:29 10° NE
GPS 2-12 Rocket1 3.4 18:48:42 10° W 18:53:28 64° NNW 18:58:13 10° ENE
Cosmos 1470 Rocket 3.5 18:55:41 10° N 18:59:59 77° E 19:04:19 10° S
SL-24 DEB 4.2 18:55:39 10° N 19:00:19 87° E 19:04:57 10° S
Cosmos 2228 Rocket 3.3 18:56:10 10° S 19:00:44 79° W 19:05:16 10° N
Cosmos 1812 3.1 18:58:37 10° SSW 19:02:25 66° W 19:06:13 10° N
Nadezhda 3 Rocket 4.1 18:57:39 10° S 19:04:00 86° W 19:10:22 10° N
Cosmos 1707 Rocket 4.3 19:00:43 10° SSE 19:04:39 31° E 19:08:34 10° NNE
MOS 1 Rocket 3.6 18:59:23 10° NNE 19:04:40 64° E 19:09:41 10° S
FUSE 4.3 18:59:43 10° NW 19:04:52 46° NNE 19:09:46 11° E
Cosmos 1939 Rocket 3.0 19:01:29 10° SSE 19:05:11 46° ENE 19:08:52 10° N
CZ-3B R/B 3.6 19:00:49 10° W 19:05:42 57° NNW 19:18:04 14° ENE
H-2A R/B 3.6 19:04:10 10° ESE 19:06:51 14° ENE 19:08:38 12° NE
CZ-4 R/B 2.7 19:04:58 10° ESE 19:07:37 18° ENE 19:10:17 10° NNE
Cosmos 1689 Rocket 3.4 19:05:03 10° N 19:07:49 40° WNW 19:10:36 10° SSW
Mugunghwa Rocket 4.0 19:03:13 10° NW 19:09:26 61° NNE 19:15:59 10° ESE
COSMO-SKYMED 1 4.4 19:08:35 10° NNW 19:12:27 33° WNW 19:16:20 10° SW
Cosmos 1238 Rocket 4.2 19:09:41 10° NNE 19:14:17 34° E 19:19:37 10° SSE
IRS-1C Rocket 4.3 19:11:02 10° SSE 19:16:05 47° ENE 19:21:06 10° N
Lacrosse 4 Rocket 3.3 19:13:26 10° SW 19:16:54 28° WNW 19:20:24 10° N
SWIFT 3.4 19:15:42 10° WNW 19:19:30 33° NNW 19:21:55 18° NE
ATLAS 3B R/B 2.9 19:13:39 10° S 19:19:56 45° ESE 19:24:48 16° NE
CZ-2D R/B 3.3 19:17:46 10° SSE 19:21:27 51° ENE 19:25:08 10° N
Cosmos 1933 Rocket 4.0 19:25:41 10° NNW 19:30:04 66° W 19:34:26 10° S
Okean O Rocket 4.2 19:26:38 10° SSW 19:30:05 23° W 19:33:33 10° NW
Cosmos 1241 Rocket 4.5 19:23:50 10° NNW 19:30:25 77° ENE 19:36:51 10° SSE
CREW DRAGON DEMO-1 DEB 2.6 19:28:05 10° NNW 19:31:00 64° NE 19:32:21 28° SE
BREEZE-M DEB (TANK) 3.9 19:19:38 10° SSW 19:31:10 64° SE 19:33:18 27° ENE
Okean-O 2.9 19:27:42 10° SSE 19:31:52 42° ENE 19:36:01 10° N
Cosmos 1821 Rocket 4.0 19:26:57 10° N 19:33:15 70° E 19:39:36 10° S
Meteor 1-11 Rocket 4.4 19:28:49 10° NNE 19:34:05 34° E 19:39:23 10° SSE
Cosmos 44 4.2 19:31:24 10° NNW 19:36:41 56° WSW 19:41:52 10° S
H-10 deb 3.3 19:24:23 10° W 19:39:10 60° S 19:41:30 23° ESE
GPS 2-15 Rocket1 3.2 19:34:59 10° WNW 19:39:56 79° SSW 19:42:46 25° ESE
GPS 2-14 Rocket1 3.8 19:36:53 10° WNW 19:40:09 28° NNW 19:40:56 25° N
Cosmos 1862 Rocket 3.5 19:46:40 10° S 19:51:01 58° E 19:51:49 49° NE
Cosmos 2369 Rocket 2.0 19:45:34 10° NNW 19:51:12 77° ENE 19:56:46 10° SSE
Delta 2 Rocket 4.1 19:46:51 10° SW 19:51:18 50° SE 19:52:21 42° ESE
Cosmos 1943 Rocket 3.0 19:46:39 10° NNW 19:52:05 53° WSW 19:57:32 10° S
Meteor 1-5 Rocket 4.3 19:48:06 10° N 19:53:49 78° W 19:59:18 10° S
Centaur AC-146 3.0 19:58:16 10° SW 20:00:48 25° S 20:00:48 25° S
Cosmos 1727 Rocket 4.0 19:56:43 10° S 20:02:43 56° E 20:04:12 45° NE
CZ-2C R/B 2.4 20:02:18 36° NNE 20:04:31 87° E 20:09:45 10° SSW
Cosmos 1869 Rocket 3.8 20:00:26 10° N 20:04:50 70° W 20:09:13 10° S
Ariane H10 2.8 20:03:29 10° WSW 20:06:29 58° S 20:08:23 39° ESE
ATLAS CENTAUR R/B 1.5 20:04:46 10° SSW 20:08:52 64° WNW 20:08:52 64° WNW
YAOGAN 1 3.0 20:08:23 10° S 20:12:38 59° W 20:16:03 15° NNW
H-2A R/B (2) 3.6 20:02:33 10° WNW 20:16:01 32° N 20:16:30 32° N
DMSP B5D2-2 3.9 20:17:09 75° NNE 20:17:37 89° ESE 20:22:51 10° SSW
Cosmos 1666 4.0 20:21:55 40° WSW 20:21:55 40° WSW 20:25:04 10° SSW
Cosmos 1048 Rocket 4.0 20:17:55 10° SSW 20:23:02 83° SSW 20:23:02 83° SSW
Meteor 1-19 Rocket 4.2 20:17:30 10° S 20:23:10 73° ESE 20:23:10 73° ESE
Cosmos 468 4.5 20:18:55 10° SSW 20:24:05 82° WSW 20:24:05 82° WSW
Cosmos 2344 3.7 20:16:25 10° SSW 20:25:24 74° WNW 20:28:40 38° N
Meteor 1-18 Rocket 4.2 20:23:23 10° S 20:29:06 84° SSE 20:29:06 84° SSE
Centaur AC-72 3.1 20:14:34 10° WNW 20:31:15 82° NNE 20:32:34 63° E
CZ-4 R/B 4.3 20:40:11 10° SW 20:42:24 15° W 20:44:39 10° WNW
H-2A R/B 3.3 20:40:55 10° S 20:45:55 39° W 20:49:16 19° NW
ATLAS CENTAUR R/B 4.1 20:39:02 10° NNW 20:44:03 32° NW 20:44:03 32° NW
USA 281 3.3 20:42:34 10° SSE 20:49:05 71° WSW 20:55:37 10° NNW
Cosmos 1833 Rocket 4.5 21:00:58 10° SSW 21:03:14 25° SSW 21:03:14 25° SSW
ARIANE 5 R/B 4.2 21:03:25 10° WSW 21:22:08 32° SSW 21:22:26 32° SSW
